Location: Bergnershof
(48.9468°N, 10.9431°E)
Time: 11:06:59
(UTC+00:00)

Okean 3 - Pass Details

Date: 03 March 2021
Orbit: 577 x 600 km, 82.5° (Epoch: 12 April)

Event Time Altitude Azimuth Distance (km) Brightness Sun altitude
Rises 18:35:37 0° 355° (N) 2,832 7.1 -16.0°
Reaches altitude 10° 18:37:55 10° 3° (N) 1,930 6.2 -16.3°
Maximum altitude 18:41:58 41° 75° (ENE) 862 3.8 -17.0°
Enters shadow 18:43:04 34° 112° (ESE) 981 4.0 -17.2°
